Aérodrome :
LOGIN :

S'inscrire | Disclaimer

   EN    FR    IT 

 










Légende :    VFR   VFR Marginal   IFR   IFR Intensif   IFR Très Intensif
Visi : 
Plafond : 
>= 8 km
>= 3000ft
5 à 8 km
1000 à 3000 ft
1500m à 5 km
500 à 1000 ft
800 à 1500m
200 à 500 ft
< 800m
< 200 ft
Symboles :   Orages  Brouillard  Fortes neiges  Fortes précipitations  Vent > 20 kt
SIGMETs :   Divers  Orages  Givrage  Turbulence  Onde Orograph.  Cendres Volcan.







- Altitude de l'aérodrome : 39 ft
- Code IATA : ANR


EBAW - Anvers / Antwerpen Deurne

DERNIER METAR :
  • 181820Z 33007KT 9999 BKN033 07/05 Q1029 NOSIG

METARs EXPIRÉS :
  • 181750Z 34006KT 9999 BKN033 07/05 Q1029 NOSIG
  • 181720Z 33006KT 9999 BKN033 08/05 Q1028 NOSIG
  • 181650Z 34006KT 310V010 9999 BKN032 08/05 Q1028 NOSIG
  • 181620Z 33007KT 9999 BKN032 08/05 Q1028 NOSIG
  • 181550Z 33006KT 9999 SCT022 BKN027 08/05 Q1027 NOSIG

TAF TAF EBAW
Valide du 18 à 18h jusqu'au 19 à 03h UTC


181724Z 1818/1903 33006KT 9999 SCT015 BKN030
Pas de NOTAMs connus pour ce terrain.



MET'MAP, la Météo Aéronautique d'un coup d'oeil ! - Copyright ORBIFLY Décembre 2007 - Disclaimer

ORBIFLY MET'MAP TEAM :

Programmation & Développement : Alexandra Zaïnal
Conception & Développement : Baudouin d'Aumeries
Co-Programmation & Développement : Marc-Olivier Méhu
Soutien technique & logistique : Manuel Goepfert

Contact : metmap@orbifly.com




SOURCES & CREDITS :

   NOAA